CST,Max TemperatureF,Mean TemperatureF,Min TemperatureF,Max Dew PointF,MeanDew PointF,Min DewpointF,Max Humidity, Mean Humidity, Min Humidity, Max Sea Level PressureIn, Mean Sea Level PressureIn, Min Sea Level PressureIn, Max VisibilityMiles, Mean VisibilityMiles, Min VisibilityMiles, Max Wind SpeedMPH, Mean Wind SpeedMPH, Max Gust SpeedMPH,PrecipitationIn, CloudCover, Events, WindDirDegrees
2013-2-1,-5,-18,-31,-16,-24,-33,82,67,52,30.29,30.23,30.17,10,10,10,8,2,13,T,3,,253
2013-2-2,4,-17,-39,-3,-8,-22,87,73,58,30.26,30.14,30.00,10,8,0,14,4,18,T,4,Fog-Snow,236
2013-2-3,10,-8,-27,-4,-14,-35,82,66,49,30.12,30.06,29.96,10,10,7,16,7,22,T,2,,293
2013-2-4,7,-12,-32,-5,-18,-36,72,53,33,30.13,29.88,29.60,10,6,0,10,3,,0.12,7,Snow,157
2013-2-5,10,0,-10,-3,-7,-15,90,70,50,30.00,29.76,29.58,10,6,1,10,5,,0.02,6,Snow,6
2013-2-6,16,8,0,9,4,-5,88,77,66,30.22,30.10,30.00,10,7,1,10,5,13,0.02,8,Snow,77
2013-2-7,18,4,-11,8,0,-14,95,81,67,30.40,30.32,30.17,10,10,6,8,3,9,0.01,5,,40
2013-2-8,27,9,-10,16,9,-11,91,77,63,30.41,30.32,30.18,10,10,10,14,6,17,T,5,,151
2013-2-9,27,23,18,25,20,11,92,80,67,30.16,30.01,29.91,10,6,2,12,4,17,T,8,,175
2013-2-10,27,25,23,25,23,20,92,87,81,29.98,29.75,29.54,10,3,0,23,10,31,0.54,8,Fog-Snow,58
2013-2-11,23,18,12,20,15,9,92,80,68,29.94,29.73,29.54,10,5,1,20,11,25,0.19,8,Snow,338
2013-2-12,31,18,4,20,14,1,96,80,63,29.92,29.78,29.69,10,10,7,13,7,16,T,5,,222
2013-2-13,29,23,16,23,19,14,100,89,78,29.74,29.66,29.58,10,7,0,12,3,15,T,7,Fog,274
2013-2-14,23,14,4,15,4,-1,88,66,43,30.20,29.99,29.75,10,10,10,15,9,20,T,4,,344
2013-2-15,11,1,-10,2,-5,-13,92,75,58,30.33,30.28,30.20,10,9,6,14,5,18,T,6,,290
2013-2-16,13,-7,-28,0,-15,-33,95,77,58,30.27,30.19,30.09,10,7,0,9,3,10,T,1,Fog,112
2013-2-17,27,11,-5,21,13,-9,88,75,61,30.08,29.74,29.55,10,5,0,17,8,26,0.19,8,Fog-Snow,158
2013-2-18,27,13,-1,23,14,-8,96,84,72,30.00,29.63,29.49,10,3,0,24,11,31,0.41,8,Fog-Snow,36
2013-2-19,5,-2,-9,-5,-11,-16,79,72,64,30.52,30.27,29.99,10,10,9,22,14,29,T,1,,345
2013-2-20,8,-3,-15,-10,-15,-21,78,61,44,30.62,30.57,30.43,10,10,9,10,6,14,0.00,0,,48
2013-2-21,18,2,-15,1,-8,-17,87,62,37,30.61,30.50,30.33,10,10,10,10,5,14,0.00,0,,62
2013-2-22,27,18,8,19,14,1,100,85,70,30.31,30.07,29.89,10,9,2,12,6,16,T,8,,51
2013-2-23,32,15,-3,18,9,-4,92,73,54,29.98,29.91,29.87,10,10,10,9,1,12,0.00,2,,17
2013-2-24,36,14,-8,20,6,-12,92,72,52,30.10,30.05,29.93,10,9,2,6,0,7,T,3,,152
2013-2-25,35,18,1,22,15,-2,92,74,56,30.08,30.05,29.97,10,10,5,9,2,12,0.01,4,Snow,232
2013-2-26,42,20,-2,23,12,-4,100,70,40,30.14,30.09,30.02,10,9,4,7,1,8,0.00,0,,32
2013-2-27,32,19,6,22,17,6,92,81,69,30.22,30.12,30.02,10,10,6,18,9,24,0.00,4,,31
2013-2-28,25,19,13,18,9,5,84,67,50,30.42,30.33,30.17,10,10,10,14,9,20,T,3,,40